GREENCUBE (53106 NORAD) Tracking and Keplerian Element Data

This shows tracking and keplerian element data for the satellite.

Feedback or suggestion? Click here.




ElementValue
Catalog53106
NameGREENCUBE
Epoch Orbit6013
Epoch Day34.564462
Epoch Year2025
RAAN112.1355
Inclination70.1417
Eccentricity0.000812
Argument of Perigee52.7419
Mean Anonmoly307.398
Mean Motion6.42557586
Decay Rate-3E-08
L11 53106U 22080B 25034.56446200 -.00000003 00000+0 00000+0 0 9990
L22 53106 70.1417 112.1355 0008120 52.7419 307.3980 6.42557586 60132



Live tracking and technical data element details for GREENCUBE (NORAD 53106). GREENCUBE can be tracked NOW for your location showing map with azimuth and elevation plus other details from your city location.







IsCatalogInMostPopularTable: catalog: 53106, numindb: 2029
Update: records affected: 1



GetName: 53106 GREENCUBE

Hit Count: updated at: Wed, 30 Apr 2025 17:54:42 GMT